Current weather by "City, St" or "zip code"  
 

Current Conditions: Allentown, Lehigh Valley International Airport, PA

Fair


77.0 F

Last Updated on Aug 9 2022, 11:51 pm EDT
Humidity: 88%
Wind Speed: SW 5.8 mph
Barometer 30.00 in
Dewpoint: 73.0 F
Visibility: 10.00 mi
Precip: --
Heat Index: NA
Wind Chill: NA
Current conditions at:

Allentown, Lehigh Valley International Airport, PA (KABE)

Lat: 40.64985 Lon: 75.44771

Local Radar Image active severe weather and emergency alerts image image weather storm and storm spotter reports image weather observation monitoring service image
Local
Radar
Active
Alerts
Storm Reports Obs
Monitoring

Sign-up For Email & Text Message Weather Alert Notification Services



Advertise Here

Observation History for Allentown, Lehigh Valley International Airport, PA


Time Wind
(mph)
Vis
(mi)
Weather Precip (in) Temperature (F) Relative
Humidity
Wind
Chill
(F)
Heat
Index
(F)
Pressure
Air Dwpt altimeter
(in)
sea level
(mb)
Rmks
11:51 pm EDT SW 5.8 10.00 Fair -- 77.0 73.0 88% NA NA 30.00 1015.4
9:51 pm EDT S 5.8 10.00 A Few Clouds -- 78.0 73.0 85% NA NA 29.99 1015.0
8:51 pm EDT SW 3.5 10.00 A Few Clouds -- 78.0 73.0 85% NA NA 29.96 1014.1
7:51 pm EDT W 5.8 10.00 A Few Clouds -- 79.0 73.0 82% NA NA 29.94 1013.5
6:51 pm EDT SW 6.9 10.00 Fair -- 79.0 72.0 79% NA NA 29.94 1013.5
5:51 pm EDT SW 4.6 10.00 A Few Clouds Trace 81.0 73.9 79% NA 86 29.94 1013.3
4:51 pm EDT W 8.1 9.00 Light Rain 00.03 82.0 73.9 77% NA 88 29.93 1013.0
3:51 pm EDT W 4.6 10.00 Partly Cloudy 00.01 89.0 73.9 61% NA 98 29.92 1012.8
2:51 pm EDT W 17.3 G 28.8 10.00 Light Rain Trace 86.0 70.0 59% NA 91 29.93 1013.2
1:51 pm EDT NW 12.7 10.00 Partly Cloudy -- 95.0 70.0 44% NA 101 29.93 1012.9
12:51 pm EDT W 12.7 G 21.9 10.00 A Few Clouds -- 93.0 70.0 47% NA 99 29.94 1013.5
11:51 am EDT NW 11.5 G 21.9 10.00 Mostly Cloudy -- 90.0 71.1 54% NA 96 29.95 1013.7
10:51 am EDT W 8.1 10.00 Mostly Cloudy -- 89.0 72.0 57% NA 96 29.95 1013.8
9:51 am EDT W 8.1 G 17.3 10.00 Fair -- 87.0 72.0 61% NA 93 29.95 1013.8
8:51 am EDT SW 9.2 10.00 Fair -- 84.0 72.0 67% NA 90 29.95 1013.8
6:51 am EDT SW 4.6 10.00 Fair -- 75.0 72.0 90% NA NA 29.94 1013.4
5:51 am EDT SW 3.5 10.00 Fair -- 74.0 70.0 88% NA NA 29.93 1013.1
4:51 am EDT SW 4.6 10.00 Fair -- 76.0 71.1 85% NA NA 29.93 1013.1
3:51 am EDT SW 3.5 10.00 Fair -- 76.0 71.1 85% NA NA 29.92 1012.9
2:51 am EDT W 3.5 10.00 Fair -- 78.0 71.1 79% NA NA 29.92 1012.9
1:51 am EDT SW 6.9 10.00 A Few Clouds Trace 81.0 72.0 74% NA 85 29.93 1013.2

Regional Weather Observation


Lehighton Jake Arner Memorial Airport, PA (K22N)

Fair
73.0 F

Allentown, Lehigh Valley International Airport, PA (KABE)

Fair
77.0 F

Allentown Queen City Municipal Airport, PA (KXLL)

Fair
77.0 F

Quakertown Airport, PA (KUKT)

Fair
77.0 F

Reading, Reading Regional Airport, PA (KRDG)

Mostly Cloudy
78.0 F

Mount Pocono, Pocono Mountains Municipal Airport, PA (KMPO)

A Few Clouds
69.0 F

Advertise Here


Advertise Here